"Pseudo-MPEC" for P11U5Dv

Created 2024 May 18 5:22:07 UT using Find_Orb

Click here for an explanation of pseudo-MPECs

 
 Astrometry: 
     P11U5Dv* C2024 05 03ZfjE!@/XSu8Av`Vt-huU,Nr4Ov(Kl=76mVL%cG+VB\yV,y7a_?3sF51
     P11U5Dv  C2024 05 03n/VtAstrometryUs1kiX!;^e=CA9%786-x5D9t=LGfredacted;6F51
     P11U5Dv  C2024 05 03#`kPK7click@^85BWReRlEi^[v7Jt*DlWE2heremIr8SwOM[BcWSF51
     P11U5Dv 1C2024 05 16ow,;BOT#EMOKF,pXSsPF'(OTcqqu%Ar16::jq@5xA?#gforKsFYGZ84
     P11U5Dv 1C2024 05 16PYNX.\vZ.q_)iJ?]dd.+S,rcGx\G1]xje0R`201KmTu2k:PyE*_%Z84
     P11U5Dv 1C2024 05 16HLT_teBLU.6.0wttbg=uS.i*bhhGmjptEexplanation/ndQt@90Z84

Station data:
(F51) Pan-STARRS 1, Haleakala  (N20.707234 W156.255910)  US/Hawaii.
   Observers J. Bulger, T. Lowe, A. Schultz, M. Willman. Measurers K.
   Chambers, S. Chastel, T. de Boer, L. Denneau, J. Fairlamb, H. Flewelling,
   M. Huber, C.-C. Lin, E. Magnier, Y. Ramanjooloo, R. Wainscoat, R. Weryk.
   1.8-m Ritchey-Chrétien + CCD.
(Z84) Calar Alto-Schmidt  (N37.224046 W2.548210)  Spain.  Observer M. Micheli.
    Measurers E. Schwab, D. Koschny, M. Micheli. 0.8-m f/3 Schmidt + CCD.

Orbital elements:  P11U5Dv
   Perihelion 2024 Aug 1.33363 +/- 4.2 TT =  8:00:25 (JD 2460523.83363)
Epoch 2024 May 16.0 TT = JDT 2460446.5   Earth MOID: 0.1786      AutoNEOCP
M 328.57713927 +/- 2.7              (J2000 ecliptic)
n   0.40632855 +/- 0.0192           Peri.  191.22283 +/- 10
a   1.80530737 +/- 0.0568           Node   109.54708 +/- 4.3
e   0.3399131 +/- 0.0241            Incl.   14.28636 +/- 0.54
P   2.43/885.97d           H 21.83  G  0.15   U 10.1
q 1.19165968 +/- 0.0553    Q 2.41895506 +/- 0.0904
From 6 observations 2024 May 3-16; mean residual 0".05
Residuals in arcseconds: 
240503 F51  .09-  .04+    240503 F51  .12+  .03-    240516 Z84  .01+  .01-    
240503 F51  .03-  .01-    240516 Z84  .03+  .04-    240516 Z84  .04-  .05+    

Ephemerides (geocentric):
Date (UTC) HH   RA             Dec           delta  r     elong  mag " sig PA
---- --------  ------------   ------------  ------ ------ -----  --- --------
2024 05 18 05  17 09 12.778   +13 50 12.87  .42431 1.3644 140.1 21.9 4.98  98
2024 05 18 06  17 09 12.690   +13 50 19.97  .42406 1.3643 140.1 21.9 5.14  98
2024 05 18 07  17 09 12.599   +13 50 27.00  .42380 1.3641 140.1 21.9 5.30  97
2024 05 18 08  17 09 12.503   +13 50 33.95  .42355 1.3639 140.1 21.9 5.46  96
2024 05 18 09  17 09 12.405   +13 50 40.84  .42330 1.3638 140.1 21.9 5.62  95
2024 05 18 10  17 09 12.303   +13 50 47.66  .42305 1.3636 140.2 21.9 5.78  95
2024 05 18 11  17 09 12.197   +13 50 54.41  .42280 1.3634 140.2 21.9 5.95  94
2024 05 18 12  17 09 12.088   +13 51 01.09  .42254 1.3633 140.2 21.9 6.11  93
2024 05 18 13  17 09 11.975   +13 51 07.70  .42229 1.3631 140.2 21.9 6.28  93
2024 05 18 14  17 09 11.859   +13 51 14.24  .42204 1.3629 140.2 21.9 6.45  92
2024 05 18 15  17 09 11.739   +13 51 20.72  .42179 1.3628 140.2 21.9 6.63  92
2024 05 18 16  17 09 11.615   +13 51 27.12  .42154 1.3626 140.2 21.9 6.80  91
2024 05 18 17  17 09 11.489   +13 51 33.45  .42129 1.3624 140.3 21.9 6.98  91
2024 05 18 18  17 09 11.358   +13 51 39.71  .42104 1.3623 140.3 21.9 7.16  90
2024 05 18 19  17 09 11.224   +13 51 45.90  .42079 1.3621 140.3 21.9 7.34  90
2024 05 18 20  17 09 11.087   +13 51 52.02  .42054 1.3619 140.3 21.9 7.53  89
2024 05 18 21  17 09 10.946   +13 51 58.07  .42029 1.3618 140.3 21.9 7.71  89
2024 05 18 22  17 09 10.801   +13 52 04.04  .42004 1.3616 140.3 21.9 7.90  88
2024 05 18 23  17 09 10.653   +13 52 09.95  .41979 1.3614 140.3 21.9 8.09  88
2024 05 19 00  17 09 10.501   +13 52 15.79  .41954 1.3613 140.3 21.9 8.28  87
2024 05 19 01  17 09 10.346   +13 52 21.55  .41929 1.3611 140.4 21.9 8.48  87
2024 05 19 02  17 09 10.187   +13 52 27.24  .41904 1.3609 140.4 21.9 8.67  86
2024 05 19 03  17 09 10.025   +13 52 32.86  .41879 1.3608 140.4 21.9 8.87  86
2024 05 19 04  17 09 09.859   +13 52 38.41  .41854 1.3606 140.4 21.9 9.07  86
2024 05 19 05  17 09 09.690   +13 52 43.89  .41829 1.3604 140.4 21.9 9.27  85
2024 05 19 06  17 09 09.517   +13 52 49.30  .41804 1.3603 140.4 21.9 9.48  85
2024 05 19 07  17 09 09.341   +13 52 54.63  .41779 1.3601 140.4 21.9 9.68  85
2024 05 19 08  17 09 09.161   +13 52 59.89  .41754 1.3599 140.5 21.9 9.89  84
2024 05 19 09  17 09 08.978   +13 53 05.08  .41729 1.3598 140.5 21.9 10.1  84
2024 05 19 10  17 09 08.791   +13 53 10.20  .41705 1.3596 140.5 21.8 10.3  84
2024 05 19 11  17 09 08.601   +13 53 15.25  .41680 1.3594 140.5 21.8 10.5  83
2024 05 19 12  17 09 08.407   +13 53 20.22  .41655 1.3593 140.5 21.8 10.7  83
2024 05 19 13  17 09 08.209   +13 53 25.12  .41630 1.3591 140.5 21.8 11.0  83
2024 05 19 14  17 09 08.008   +13 53 29.94  .41605 1.3589 140.5 21.8 11.2  82
2024 05 19 15  17 09 07.804   +13 53 34.70  .41581 1.3588 140.5 21.8 11.4  82
2024 05 19 16  17 09 07.596   +13 53 39.38  .41556 1.3586 140.6 21.8 11.6  82
2024 05 19 17  17 09 07.385   +13 53 43.98  .41531 1.3585 140.6 21.8 11.9  81
2024 05 19 18  17 09 07.170   +13 53 48.51  .41506 1.3583 140.6 21.8 12.1  81
2024 05 19 19  17 09 06.951   +13 53 52.97  .41482 1.3581 140.6 21.8 12.3  81
2024 05 19 20  17 09 06.729   +13 53 57.36  .41457 1.3580 140.6 21.8 12.5  81
2024 05 19 21  17 09 06.504   +13 54 01.67  .41432 1.3578 140.6 21.8 12.8  80
2024 05 19 22  17 09 06.275   +13 54 05.91  .41408 1.3576 140.6 21.8 13.0  80
2024 05 19 23  17 09 06.042   +13 54 10.07  .41383 1.3575 140.6 21.8 13.3  80
2024 05 20 00  17 09 05.807   +13 54 14.16  .41358 1.3573 140.7 21.8 13.5  80
2024 05 20 01  17 09 05.567   +13 54 18.17  .41334 1.3571 140.7 21.8 13.7  79
2024 05 20 02  17 09 05.324   +13 54 22.11  .41309 1.3570 140.7 21.8 14.0  79
2024 05 20 03  17 09 05.078   +13 54 25.98  .41284 1.3568 140.7 21.8 14.2  79
2024 05 20 04  17 09 04.828   +13 54 29.77  .41260 1.3566 140.7 21.8 14.5  79